Retour au catalogue

STARLINK-33604

ActifCommunicationsVLEO
NORAD 63070·PAYLOAD·🇺🇸 United States

Lancé Feb 21, 2025 depuis Cape Canaveral Space Force Station

Loading…

Prochains Passages (prochaines 24 heures)

TLE

FraisSource: CelesTrak SupGP

Époque: Sep 15, 2026, 03:42 UTC

1 63070C 25035U   26258.15465278  .00047322  00000+0  17139-2 0  2580
2 63070  43.0019 157.4872 0001167 265.9927  11.2344 15.27557038    13

Suivez STARLINK-33604 en temps réel avec AllMySat

Download on the App Store